FW9619 Weather Reports


Display with metric or nautical units.
time (UTC)temp
F
wind
direction
speed
MPH
gust
MPH
rain 1hr
in
rain 24hr
in
rain mn
in
humidity
%
barometer
mb
20260906161545 95 300 3.0 8.0 0.00 0.00 0.00 49 1017.3
20260906160044 95 29 2.0 4.0 0.00 0.00 0.00 51 1017.3
20260906154547 93 5 1.0 6.0 0.00 0.00 0.00 54 1017.4
20260906153046 94 20 1.0 3.0 0.00 0.00 0.00 54 1017.4
20260906151546 91 125 1.0 4.0 0.00 0.00 0.00 58 1017.3
20260906150046 88 49 2.0 4.0 0.00 0.00 0.00 62 1017.2
20260906144548 87 0 1.0 3.0 0.00 0.00 0.00 65 1017.2
20260906143049 85 0 1.0 3.0 0.00 0.00 0.00 67 1017.2
20260906141546 82 47 1.0 4.0 0.00 0.00 0.00 72 1017.2
20260906140055 81 57 1.0 3.0 0.00 0.00 0.00 73 1017.4
20260906134542 78 15 1.0 3.0 0.00 0.00 0.00 79 1017.4
20260906133049 76 27 1.0 4.0 0.00 0.00 0.00 84 1017.3
20260906131546 74 41 1.0 3.0 0.00 0.00 0.00 86 1017.2
20260906130045 72 0 0.0 2.0 0.00 0.00 0.00 89 1017.1
20260906124549 70 0 0.0 1.0 0.00 0.00 0.00 91 1017.0
20260906123047 70 0 0.0 1.0 0.00 0.00 0.00 92 1016.7
20260906121550 69 5 0.0 2.0 0.00 0.00 0.00 92 1016.5
20260906120055 69 0 0.0 1.0 0.00 0.00 0.00 92 1016.5
20260906114549 69 0 0.0 0.0 0.00 0.00 0.00 92 1016.3
20260906113051 69 0 0.0 1.0 0.00 0.00 0.00 91 1016.3
20260906111559 69 0 0.0 0.0 0.00 0.00 0.00 91 1016.2
20260906110044 69 0 0.0 2.0 0.00 0.00 0.00 91 1016.1
20260906104549 69 0 0.0 0.0 0.00 0.00 0.00 91 1016.2
20260906103046 70 0 0.0 3.0 0.00 0.00 0.00 90 1016.3
20260906101544 70 0 0.0 2.0 0.00 0.00 0.00 90 1016.0
20260906100042 70 0 0.0 0.0 0.00 0.00 0.00 90 1016.0
20260906094547 70 0 0.0 1.0 0.00 0.00 0.00 90 1015.9
20260906093048 71 0 0.0 1.0 0.00 0.00 0.00 89 1015.6
20260906091545 70 0 0.0 2.0 0.00 0.00 0.00 89 1015.5
20260906090048 71 0 0.0 1.0 0.00 0.00 0.00 89 1015.6
20260906084551 71 0 0.0 2.0 0.00 0.00 0.00 89 1015.3
20260906083045 71 0 0.0 0.0 0.00 0.00 0.00 89 1015.3
20260906081546 71 0 0.0 1.0 0.00 0.00 0.00 89 1015.3
20260906080044 72 0 0.0 0.0 0.00 0.00 0.00 88 1015.2
20260906074548 72 0 1.0 3.0 0.00 0.00 0.00 87 1015.2
20260906073047 72 0 0.0 0.0 0.00 0.00 0.00 87 1015.4
20260906071557 72 0 0.0 0.0 0.00 0.00 0.00 87 1015.5
20260906070044 72 0 0.0 2.0 0.00 0.00 0.00 86 1015.5
20260906064549 73 0 0.0 2.0 0.00 0.00 0.00 85 1015.8
20260906063053 74 5 1.0 2.0 0.00 0.00 0.00 85 1015.9
20260906061546 73 0 1.0 2.0 0.00 0.00 0.00 85 1015.9
20260906060045 74 0 0.0 1.0 0.00 0.00 0.00 85 1015.8
20260906054550 74 0 0.0 1.0 0.00 0.00 0.00 84 1016.0
20260906053052 74 0 0.0 0.0 0.00 0.00 0.00 83 1015.9
20260906051546 75 0 0.0 0.0 0.00 0.00 0.00 82 1015.7
20260906050044 75 0 0.0 1.0 0.00 0.00 0.00 81 1015.7
20260906044543 76 0 0.0 0.0 0.00 0.00 0.00 79 1015.8
20260906043045 76 0 0.0 1.0 0.00 0.00 0.00 79 1015.9
20260906041552 76 82 0.0 2.0 0.00 0.00 0.00 78 1015.9
20260906040045 77 0 0.0 1.0 0.00 0.00 0.00 77 1015.9
20260906034549 77 0 0.0 0.0 0.00 0.00 0.00 76 1015.8
20260906033046 77 0 0.0 0.0 0.00 0.00 0.00 76 1015.7
20260906031543 79 0 0.0 0.0 0.00 0.00 0.00 73 1015.7
20260906030049 79 0 0.0 0.0 0.00 0.00 0.00 72 1015.5
20260906024600 80 0 0.0 0.0 0.00 0.00 0.00 71 1015.2
20260906023043 80 0 0.0 0.0 0.00 0.00 0.00 70 1015.2
20260906021546 80 0 0.0 0.0 0.00 0.00 0.00 70 1014.7
20260906020049 82 0 0.0 0.0 0.00 0.00 0.00 66 1014.5
20260906014552 83 0 0.0 0.0 0.00 0.00 0.00 65 1014.3
20260906013049 84 0 0.0 1.0 0.00 0.00 0.00 64 1014.4
20260906011547 86 0 0.0 0.0 0.00 0.00 0.00 59 1014.3
20260906010047 87 0 0.0 2.0 0.00 0.00 0.00 57 1014.2
20260906004545 88 0 0.0 2.0 0.00 0.00 0.00 55 1014.0
20260906003051 89 0 1.0 9.0 0.00 0.00 0.00 52 1014.0
20260906001549 91 147 3.0 10.0 0.00 0.00 0.00 49 1014.0
20260906000046 95 88 6.0 15.0 0.00 0.00 0.00 43 1013.9
20260905234544 98 39 2.0 6.0 0.00 0.00 0.00 39 1013.5
20260905233049 99 41 5.0 11.0 0.00 0.00 0.00 37 1013.4
20260905231546 99 37 3.0 5.0 0.00 0.00 0.00 37 1013.4
20260905230047 100 27 3.0 9.0 0.00 0.00 0.00 36 1013.3
20260905224542 101 22 5.0 10.0 0.00 0.00 0.00 36 1013.3
20260905223046 101 25 0.0 4.0 0.00 0.00 0.00 36 1013.2
20260905221546 102 236 1.0 3.0 0.00 0.00 0.00 34 1013.2
20260905220045 100 0 0.0 2.0 0.00 0.00 0.00 38 1013.4
20260905214547 99 360 2.0 6.0 0.00 0.00 0.00 38 1013.6
20260905213047 100 36 2.0 9.0 0.00 0.00 0.00 37 1013.7
20260905211545 102 63 3.0 9.0 0.00 0.00 0.00 34 1013.8
20260905210043 103 58 5.0 10.0 0.00 0.00 0.00 33 1014.0
20260905204557 102 10 4.0 9.0 0.00 0.00 0.00 34 1014.3
20260905203054 101 34 4.0 10.0 0.00 0.00 0.00 36 1014.4
20260905201545 104 32 4.0 10.0 0.00 0.00 0.00 33 1014.4
20260905200055 103 193 3.0 6.0 0.00 0.00 0.00 33 1014.3
20260905194549 102 66 4.0 11.0 0.00 0.00 0.00 34 1014.6
20260905193053 103 20 5.0 13.0 0.00 0.00 0.00 34 1014.9
20260905191544 103 24 2.0 5.0 0.00 0.00 0.00 35 1015.1
20260905190057 102 22 2.0 6.0 0.00 0.00 0.00 36 1015.3
20260905184550 101 310 3.0 11.0 0.00 0.00 0.00 37 1015.5
20260905183046 101 32 8.0 14.0 0.00 0.00 0.00 37 1015.9
20260905181546 100 308 3.0 10.0 0.00 0.00 0.00 38 1016.2
20260905180051 100 192 0.0 3.0 0.00 0.00 0.00 39 1016.4
20260905174546 99 21 3.0 9.0 0.00 0.00 0.00 40 1016.6
20260905173045 100 49 7.0 12.0 0.00 0.00 0.00 40 1016.8
20260905171544 101 44 3.0 10.0 0.00 0.00 0.00 39 1016.7
20260905170050 101 0 0.0 5.0 0.00 0.00 0.00 40 1017.1
20260905164548 97 297 2.0 10.0 0.00 0.00 0.00 44 1017.3
20260905163045 97 115 3.0 10.0 0.00 0.00 0.00 45 1017.2